{"data":{"norad_id":38044,"intl_designator":"2011-080E","name":"GLOBALSTAR M090","alt_names":[],"object_type":"PAYLOAD","status":"ACTIVE","operator":null,"country":"GLOB","launch_date":"2011-12-28","launch_site_code":"TYMSC","launch_vehicle":null,"mission":null,"orbit_class":"UNKNOWN","rcs_meters":4.548,"size_class":null,"mass_kg":null,"dimensions":null,"purposes":["comms"],"wikipedia_slug":null,"has_3d_model":false,"image_url":null,"decayed_at":null,"tle_current":{"epoch":"2026-09-20T04:02:23.846784Z","epoch_age_seconds":43414,"freshness":"FRESH","line1":"1 38044U 11080E   26263.16833156 -.00000111  00000+0 -38581-4 0  9994","line2":"2 38044  52.0135  39.3713 0000801 121.4887  49.6077 12.62268109681705","mean_motion":12.62268109,"eccentricity":8.01e-5,"inclination_deg":52.0135,"raan_deg":39.3713,"arg_perigee_deg":121.4887,"mean_anomaly_deg":49.6077,"bstar":-3.8581e-5,"rev_number":68170,"period_min":114.08035976927,"perigee_km":1412.9725858224,"apogee_km":1414.2208215618,"semimajor_km":7791.7337036921,"source":"CELESTRAK","updated_at":"2026-09-20T09:00:45.040368Z"}}}